When you browse on this site, cookies collect data to enhance your experience and personalize the content and advertising you see.
Visit our Privacy Policy to learn more. By continuing to use the site, you agree to this use of cookies and data.
  • In Austria
  • List of Countries
  • For 7 days
  • Water Temperature
  • Satellite Maps
  • Weather Map
  • News
  • Weather Widgets
  • user-avatar
    Login

    Hourly Weather Sherpur

    Today, 22 April, Monday

    Time Temperature Precipitation Wind Pressure Humidity
    00:00 +16°C° 0 mm 1 mps 609 mmHg 45%
    01:00 +15°C° 0 mm 1 mps 609 mmHg 45%
    02:00 +15°C° 0 mm 1 mps 609 mmHg 46%
    03:00 +14°C° 0 mm 1 mps 609 mmHg 46%
    04:00 +13°C° 0 mm 0 mps 608 mmHg 47%
    05:00 +12°C° 0 mm 0 mps 608 mmHg 47%
    06:00 +14°C° 0 mm 0 mps 609 mmHg 43%
    07:00 +16°C° 0 mm 1 mps 610 mmHg 38%
    08:00 +18°C° 0 mm 1 mps 610 mmHg 34%
    09:00 +19°C° 0 mm 1 mps 611 mmHg 32%
    10:00 +20°C° 0 mm 1 mps 611 mmHg 30%
    11:00 +22°C° 0 mm 1 mps 611 mmHg 28%
    12:00 +23°C° 0 mm 2 mps 611 mmHg 27%
    13:00 +23°C° 0 mm 2 mps 611 mmHg 25%
    14:00 +24°C° 0 mm 2 mps 611 mmHg 23%
    15:00 +24°C° 0 mm 2 mps 611 mmHg 23%
    16:00 +24°C° 0 mm 3 mps 611 mmHg 22%
    17:00 +24°C° 0 mm 3 mps 611 mmHg 22%
    18:00 +22°C° 0 mm 3 mps 611 mmHg 25%
    19:00 +21°C° 0 mm 3 mps 611 mmHg 28%
    20:00 +20°C° 0 mm 2 mps 610 mmHg 31%
    21:00 +19°C° 0 mm 2 mps 610 mmHg 34%
    22:00 +18°C° 0 mm 2 mps 610 mmHg 36%
    23:00 +18°C° 0 mm 1 mps 610 mmHg 39%

    Tomorrow, 23 April, Tuesday

    Time Temperature Precipitation Wind Pressure Humidity
    00:00 +16°C° 0 mm 1 mps 610 mmHg 40%
    01:00 +16°C° 0 mm 1 mps 609 mmHg 41%
    02:00 +15°C° 0 mm 1 mps 609 mmHg 42%
    03:00 +15°C° 0 mm 1 mps 609 mmHg 42%
    04:00 +14°C° 0 mm 1 mps 609 mmHg 42%
    05:00 +14°C° 0 mm 1 mps 609 mmHg 42%
    06:00 +15°C° 0 mm 1 mps 609 mmHg 39%
    07:00 +16°C° 0 mm 1 mps 610 mmHg 36%
    08:00 +16°C° 0 mm 1 mps 610 mmHg 33%
    09:00 +18°C° 0 mm 1 mps 611 mmHg 32%
    10:00 +19°C° 0 mm 1 mps 611 mmHg 31%
    11:00 +19°C° 0 mm 2 mps 611 mmHg 30%
    12:00 +20°C° 0 mm 2 mps 611 mmHg 29%
    13:00 +21°C° 0 mm 2 mps 611 mmHg 29%
    14:00 +21°C° 0 mm 2 mps 611 mmHg 29%
    15:00 +21°C° 0.1 mm 2 mps 611 mmHg 30%
    16:00 +21°C° 0.1 mm 2 mps 610 mmHg 31%
    17:00 +21°C° 0.1 mm 2 mps 610 mmHg 33%
    18:00 +20°C° 0.4 mm 2 mps 610 mmHg 37%
    19:00 +18°C° 0.4 mm 2 mps 610 mmHg 40%
    20:00 +17°C° 0.4 mm 2 mps 610 mmHg 44%
    21:00 +17°C° 0.5 mm 2 mps 610 mmHg 47%
    22:00 +16°C° 0.5 mm 2 mps 609 mmHg 50%
    23:00 +15°C° 0.5 mm 2 mps 609 mmHg 54%

    Day after tomorrow, 24 April, Wednesday

    Time Temperature Precipitation Wind Pressure Humidity
    00:00 +14°C° 0.1 mm 2 mps 609 mmHg 56%
    01:00 +14°C° 0.1 mm 2 mps 608 mmHg 58%
    02:00 +13°C° 0.1 mm 2 mps 608 mmHg 60%
    03:00 +13°C° 0.1 mm 2 mps 608 mmHg 61%
    04:00 +12°C° 0.1 mm 2 mps 608 mmHg 62%
    05:00 +12°C° 0.1 mm 2 mps 607 mmHg 63%
    06:00 +12°C° 0.2 mm 2 mps 608 mmHg 63%
    07:00 +12°C° 0.2 mm 2 mps 608 mmHg 63%
    08:00 +13°C° 0.2 mm 2 mps 608 mmHg 63%
    09:00 +13°C° 0.5 mm 2 mps 609 mmHg 63%
    10:00 +14°C° 0.5 mm 2 mps 609 mmHg 63%
    11:00 +13°C° 0.5 mm 3 mps 609 mmHg 63%
    12:00 +13°C° 1.6 mm 3 mps 608 mmHg 65%
    13:00 +12°C° 1.6 mm 3 mps 608 mmHg 67%
    14:00 +12°C° 1.6 mm 3 mps 607 mmHg 70%
    15:00 +12°C° 0.5 mm 3 mps 607 mmHg 70%
    16:00 +12°C° 0.5 mm 3 mps 607 mmHg 71%
    17:00 +12°C° 0.5 mm 3 mps 607 mmHg 72%
    18:00 +12°C° 0.1 mm 3 mps 607 mmHg 73%
    19:00 +13°C° 0.1 mm 2 mps 607 mmHg 73%
    20:00 +12°C° 0.1 mm 2 mps 608 mmHg 74%
    21:00 +12°C° 0.1 mm 2 mps 608 mmHg 74%
    22:00 +12°C° 0.1 mm 2 mps 608 mmHg 73%
    23:00 +12°C° 0.1 mm 2 mps 609 mmHg 73%

    25 April, Thursday

    Time Temperature Precipitation Wind Pressure Humidity
    00:00 +12°C° 0 mm 2 mps 608 mmHg 72%
    01:00 +11°C° 0 mm 1 mps 608 mmHg 71%
    02:00 +11°C° 0 mm 1 mps 608 mmHg 71%
    03:00 +10°C° 0 mm 1 mps 608 mmHg 71%
    04:00 +10°C° 0 mm 1 mps 608 mmHg 71%
    05:00 +10°C° 0 mm 1 mps 608 mmHg 71%
    06:00 +11°C° 0 mm 1 mps 608 mmHg 67%
    07:00 +11°C° 0 mm 1 mps 609 mmHg 62%
    08:00 +12°C° 0 mm 1 mps 609 mmHg 58%
    09:00 +13°C° 0 mm 2 mps 610 mmHg 52%
    10:00 +14°C° 0 mm 2 mps 610 mmHg 46%
    11:00 +15°C° 0 mm 2 mps 611 mmHg 40%
    12:00 +16°C° 0 mm 2 mps 611 mmHg 37%
    13:00 +17°C° 0 mm 3 mps 611 mmHg 34%
    14:00 +18°C° 0 mm 4 mps 611 mmHg 32%
    15:00 +18°C° 0.1 mm 4 mps 611 mmHg 31%
    16:00 +18°C° 0.1 mm 4 mps 610 mmHg 31%
    17:00 +18°C° 0.1 mm 4 mps 610 mmHg 31%
    18:00 +17°C° 0.1 mm 4 mps 610 mmHg 34%
    19:00 +14°C° 0.1 mm 3 mps 610 mmHg 38%
    20:00 +13°C° 0.1 mm 3 mps 609 mmHg 42%
    21:00 +12°C° 0 mm 3 mps 609 mmHg 43%
    22:00 +12°C° 0 mm 2 mps 609 mmHg 44%
    23:00 +12°C° 0 mm 2 mps 609 mmHg 45%

    26 April, Friday

    Time Temperature Precipitation Wind Pressure Humidity
    00:00 +12°C° 0 mm 2 mps 609 mmHg 45%
    01:00 +10°C° 0 mm 2 mps 608 mmHg 44%
    02:00 +10°C° 0 mm 2 mps 608 mmHg 44%
    03:00 +10°C° 0 mm 2 mps 608 mmHg 44%
    04:00 +10°C° 0 mm 1 mps 608 mmHg 45%
    05:00 +9°C° 0 mm 1 mps 607 mmHg 45%
    06:00 +10°C° 0 mm 1 mps 608 mmHg 41%
    07:00 +11°C° 0 mm 1 mps 609 mmHg 38%
    08:00 +12°C° 0 mm 1 mps 609 mmHg 34%
    09:00 +14°C° 0 mm 1 mps 610 mmHg 32%
    10:00 +15°C° 0 mm 1 mps 610 mmHg 30%
    11:00 +16°C° 0 mm 2 mps 611 mmHg 27%
    12:00 +17°C° 0 mm 2 mps 611 mmHg 26%
    13:00 +18°C° 0 mm 2 mps 611 mmHg 25%
    14:00 +19°C° 0 mm 3 mps 611 mmHg 24%
    15:00 +18°C° 0.1 mm 3 mps 610 mmHg 26%
    16:00 +18°C° 0.1 mm 3 mps 610 mmHg 27%
    17:00 +18°C° 0.1 mm 3 mps 610 mmHg 28%
    18:00 +15°C° 0.1 mm 4 mps 610 mmHg 31%
    19:00 +14°C° 0.1 mm 4 mps 610 mmHg 34%
    20:00 +13°C° 0.1 mm 4 mps 610 mmHg 37%
    21:00 +12°C° 0 mm 3 mps 610 mmHg 38%
    22:00 +11°C° 0 mm 3 mps 609 mmHg 39%
    23:00 +12°C° 0 mm 2 mps 609 mmHg 40%

    27 April, Saturday

    Time Temperature Precipitation Wind Pressure Humidity
    00:00 +10°C° 0 mm 2 mps 609 mmHg 40%
    01:00 +10°C° 0 mm 2 mps 609 mmHg 40%
    02:00 +10°C° 0 mm 2 mps 608 mmHg 40%
    03:00 +9°C° 0 mm 2 mps 608 mmHg 41%
    04:00 +10°C° 0 mm 1 mps 608 mmHg 42%
    05:00 +10°C° 0 mm 1 mps 608 mmHg 43%
    06:00 +11°C° 0 mm 1 mps 609 mmHg 40%
    07:00 +12°C° 0 mm 1 mps 609 mmHg 37%
    08:00 +13°C° 0 mm 1 mps 610 mmHg 34%
    09:00 +14°C° 0 mm 1 mps 610 mmHg 33%
    10:00 +15°C° 0 mm 1 mps 611 mmHg 31%
    11:00 +16°C° 0 mm 2 mps 611 mmHg 29%
    12:00 +17°C° 0 mm 2 mps 611 mmHg 28%
    13:00 +18°C° 0 mm 2 mps 611 mmHg 27%
    14:00 +19°C° 0 mm 2 mps 611 mmHg 26%
    15:00 +18°C° 0.1 mm 3 mps 610 mmHg 26%
    16:00 +18°C° 0.1 mm 3 mps 610 mmHg 26%
    17:00 +18°C° 0.1 mm 3 mps 610 mmHg 27%
    18:00 +17°C° 0.1 mm 3 mps 610 mmHg 29%
    19:00 +16°C° 0.1 mm 3 mps 610 mmHg 32%
    20:00 +13°C° 0.1 mm 3 mps 610 mmHg 34%
    21:00 +13°C° 0 mm 3 mps 609 mmHg 35%
    22:00 +13°C° 0 mm 2 mps 609 mmHg 36%
    23:00 +13°C° 0 mm 2 mps 609 mmHg 37%
    Show more